TO-108
1 44881U 19093C   25189.85851157  .00000680  00000-0  84549-4 0  9990
2 44881  97.7919 264.8959 0014911 131.8178 228.4313 14.85648651300427
FloripaSat 1
1 44885U 19093G   25189.79335981  .00004337  00000-0  36490-3 0  9993
2 44885  97.8175 277.4560 0012821 106.8659 253.3970 14.98724936301127
RS-44
1 44909U 19096E   25189.55886198  .00000037  00000-0  10716-3 0  9994
2 44909  82.5195 208.0245 0216539 227.6199 130.6396 12.79741731258398
UPMSat 2
1 46276U 20061E   25189.73993520  .00065652  00000-0  49190-3 0  9997
2 46276  97.2423 265.1785 0002080 148.0810 212.0580 15.72450664270041
SALSAT
1 46495U 20068K   25189.46070673  .00004843  00000-0  20843-3 0  9991
2 46495  97.8610 168.8317 0012896  66.7299 293.5292 15.23065578262925
CubeSX-Sirius-HSE
1 47951U 21022V   25157.62701764  .07883385  25648-5  89537-3 0  9993
2 47951  97.4004  72.1904 0010275 223.9924 136.0557 16.36879307233400
CubeSX-HSE
1 47952U 21022W   25157.69972699  .06655353  25454-5  93288-3 0  9992
2 47952  97.3980  72.5414 0010307 219.3637 140.6911 16.34906352233436
GRBAlpha
1 47959U 21022AD  25160.45426279  .07940347  25506-5  90589-3 0  9995
2 47959  97.3899  75.6235 0011032 227.2558 132.7812 16.36806138232695
TUBIN
1 48900U 21059X   25189.75046002  .00032849  00000-0  36689-3 0  9998
2 48900  97.6750   1.4001 0004220 126.9252 233.2392 15.62705764224597
LEDSAT
1 49069U 21073D   25189.76511260  .00061403  00000-0  63888-3 0  9994
2 49069  97.3883 272.5990 0006910 322.5202  37.5575 15.64370841215991
CUTE
1 49263U 21088D   25189.45778073  .00012298  00000-0  23776-3 0  9999
2 49263  97.4507 266.5681 0009421 132.1772 228.0280 15.47871182208894
TeikyoSat 4
1 49396U 21102B   25189.81957918  .00001138  00000-0  78331-4 0  9999
2 49396  97.4087 227.1916 0013505  39.7615 320.4600 15.07742242200956
Z-Sat
1 49399U 21102E   25189.82148369  .00002684  00000-0  14828-3 0  9992
2 49399  97.3784 230.4712 0018012   8.4821 351.6712 15.14612966201401
KOSEN 1
1 49402U 21102H   25189.69372293  .00004241  00000-0  19605-3 0  9996
2 49402  97.3690 233.9844 0014921 343.2838  16.7903 15.20609709201712
HO-113
1 50466U 21131B   25189.85817390  .00000319  00000-0  11345-3 0  9995
2 50466  98.5109 279.0685 0005110  59.6437 300.5256 14.40841834185667
Foresail-1
1 52766U 22057AL  25176.64799660  .13857605  27391-5  25307-3 0  9992
2 52766  97.5832 331.2310 0012137 233.7199 258.4922 16.46795272172486
SNUGLITE 2
1 52899U 22065F   25189.89441359  .00000728  00000-0  15045-3 0  9991
2 52899  98.1722 331.5885 0008117  30.8014 329.3663 14.63267547160778
UmKA 1 (RS40S)
1 57172U 23091G   25189.85682682  .00003425  00000-0  18352-3 0  9993
2 57172  97.5567 245.0885 0013194 228.4506 131.5596 15.15611833111917
CubeBel-2 (EU11S)
1 57175U 23091K   25189.87423821  .00005526  00000-0  26129-3 0  9991
2 57175  97.5567 246.4336 0010825 234.4324 125.5902 15.19758621112005
VERONIKA
1 58261U 23174F   25189.81664665  .00186254  00000-0  10066-2 0  9997
2 58261  97.4093 277.9363 0005854 248.6096 111.4547 15.79577757 93285
ENSO
1 58470U 23185J   25189.87415974  .00046744  00000-0  60669-3 0  9998
2 58470  97.3727 265.9909 0004662 332.4822  27.6187 15.58691527 89594
EIRSAT-1
1 58472U 23185L   25189.82774218  .00117825  00000-0  83071-3 0  9995
2 58472  97.3665 268.4187 0003071 293.2196  66.8744 15.73717274 89751
SONATE-2
1 59112U 24043Q   25189.87240200  .00011335  00000-0  31942-3 0  9994
2 59112  97.5168 321.6591 0010792  16.9215 343.2387 15.36548186 74835
MO-122
1 60209U 24125G   25189.55429055  .00012616  00000-0  34895-3 0  9999
2 60209  97.2768  40.8609 0019146  38.5479 321.7129 15.36961611 56401
GRBBeta
1 60237U 24128C   25189.54791810  .00002852  00000-0  22097-3 0  9995
2 60237  61.9925 338.5385 0053988  63.8407 296.8223 15.02842993 54552
Curium One
1 60242U 24128H   25189.73454113  .00004927  00000-0  34504-3 0  9995
2 60242  61.9824 335.7424 0053874  60.1265 300.5165 15.05471105 54627
ROBUSTA-3A
1 60243U 24128J   25189.41413801  .00005202  00000-0  36850-3 0  9993
2 60243  61.9895 337.7903 0052818  57.7850 302.8346 15.04993115 54567
CatSat
1 60246U 24125J   25189.52207266  .00007205  00000-0  23788-3 0  9992
2 60246  97.2567  39.7094 0041607 353.5256   6.5442 15.30851149 54417
HYPERVIEW-1G (RS66S)
1 61772U 24199AP  25189.86197535  .00014651  00000-0  41225-3 0  9991
2 61772  97.3501  58.6735 0015274  89.5264 270.7730 15.36462143 81456
AO-123
1 61781U 24199AY  25189.84279463  .00004723  00000-0  17134-3 0  9991
2 61781  97.3516  57.2184 0017558  94.1633 266.1614 15.28676131 81358
ZIMSAT 2
1 61783U 24199BA  25189.87331226  .00026642  00000-0  61427-3 0  9990
2 61783  97.3473  59.5352 0014882  87.1381 273.1569 15.42438740 84665
HADES-R (SO-124)
1 62690U 25009CK  25189.45212289  .00026021  00000-0  87436-3 0  9999
2 62690  97.4088 270.1766 0001681  15.5705 344.5587 15.30813488 26565
HYDRA-T
1 62692U 25009CM  25189.17098856  .00028754  00000-0  95713-3 0  9994
2 62692  97.4091 269.9420 0001295  17.9759 342.1528 15.31097929 26520
JINJUSat 1B
1 63210U 25052A   25189.21511893  .00007649  00000-0  34641-3 0  9998
2 63210  97.4394  82.9812 0003307 194.7888 165.3251 15.21149807 17603
NUSHSAT 1
1 63211U 25052B   25189.20524562  .00008654  00000-0  38825-3 0  9990
2 63211  97.4383  82.9800 0003189 201.5041 158.6062 15.21432342 17609
TEVEL2-4
1 63213U 25052D   25189.42198254  .00007981  00000-0  36166-3 0  9999
2 63213  97.4300  83.0260 0001844 213.6904 146.4215 15.21117452 17630
TEVEL2-5
1 63214U 25052E   25189.22560779  .00008165  00000-0  37019-3 0  9996
2 63214  97.4299  82.8301 0001776 215.5296 144.5822 15.21091717 17605
TEVEL2-6
1 63215U 25052F   25189.42586112  .00007957  00000-0  36125-3 0  9993
2 63215  97.4301  83.0228 0001843 216.4381 143.6729 15.21054126 17633
TEVEL2-1
1 63217U 25052H   25189.44110492  .00008392  00000-0  38332-3 0  9997
2 63217  97.4278  82.9659 0001694 245.7507 114.3551 15.20830174 17635
TEVEL2-2
1 63218U 25052J   25189.50718245  .00008141  00000-0  37190-3 0  9998
2 63218  97.4277  83.0312 0001738 247.0877 113.0175 15.20832962 17643
TEVEL2-3
1 63219U 25052K   25189.50741534  .00008070  00000-0  36876-3 0  9997
2 63219  97.4276  83.0306 0001697 247.1224 112.9832 15.20826132 17647
TEVEL2-8
1 63237U 25052AD  25189.46419386  .00007775  00000-0  36807-3 0  9994
2 63237  97.4339  82.8788 0006067 274.2876  85.7666 15.19602371 17623
TEVEL2-9
1 63238U 25052AE  25189.20431604  .00007596  00000-0  36041-3 0  9995
2 63238  97.4340  82.6173 0006182 276.9761  83.0770 15.19532525 17587
TEVEL2-7
1 63239U 25052AF  25189.47031808  .00007416  00000-0  35228-3 0  9994
2 63239  97.4339  82.8719 0006172 275.5341  84.5190 15.19503294 17620
HYDRA-W
1 63490U 25052BL  25189.83206285  .00017846  00000-0  72754-3 0  9999
2 63490  97.4288  83.6851 0009128 267.6374  92.3818 15.24471914 17713
HADES-ICM (SO-125)
1 63492U 25052BN  25189.19926655  .00018181  00000-0  75267-3 0  9995
2 63492  97.4297  83.0114 0009567 275.4214  84.5932 15.23947095 17614
